Weather reports worldwide

Advertisment
Navalmoral de la Mata, Spain (8254): temperature & dewpoint: 07.08.2020 01:00:00 - 13.08.2020 01:00:00 (CEST)Navalmoral de la Mata, Spain (8254): wind speed & gusts: 07.08.2020 01:00:00 - 13.08.2020 01:00:00 (CEST)Navalmoral de la Mata, Spain (8254): wind direction: 07.08.2020 01:00:00 - 13.08.2020 01:00:00 (CEST)Navalmoral de la Mata, Spain (8254): reduced air pressure: 07.08.2020 01:00:00 - 13.08.2020 01:00:00 (CEST)Navalmoral de la Mata, Spain (8254): visibility: 07.08.2020 01:00:00 - 13.08.2020 01:00:00 (CEST)Navalmoral de la Mata, Spain (8254): sunshine duration: 07.08.2020 01:00:00 - 13.08.2020 01:00:00 (CEST)Navalmoral de la Mata, Spain (8254): precipitation: 07.08.2020 01:00:00 - 13.08.2020 01:00:00 (CEST)
Date & Time tt [°C] td [°C] ff [km/h] ff [kn] fx [km/h] fx [kn] dd ppp [hPa] vv [km] sd [min] rr [mm]
13.08.2020 01:00:00 - - - - - - - - - - -
13.08.2020 00:00:00 - - - - - - - - - - -
12.08.2020 23:00:00 - - - - - - - - - - -
12.08.2020 22:00:00 - - - - - - - - - - -
12.08.2020 21:00:00 - - - - - - - - - - -
12.08.2020 20:00:00 - - - - - - - - - - -
12.08.2020 19:00:00 - - - - - - - - - - -
12.08.2020 18:00:00 - - - - - - - - - - -
12.08.2020 17:00:00 - - - - - - - - - - -
12.08.2020 16:00:00 - - - - - - - - - - -
12.08.2020 15:00:00 - - - - - - - - - - -
12.08.2020 14:00:00 - - - - - - - - - - -
12.08.2020 13:00:00 - - - - - - - - - - -
12.08.2020 12:00:00 - - - - - - - - - - -
12.08.2020 11:00:00 - - - - - - - - - - -
12.08.2020 10:00:00 - - - - - - - - - - -
12.08.2020 09:00:00 - - - - - - - - - - -
12.08.2020 08:00:00 - - - - - - - - - - -
12.08.2020 07:00:00 - - - - - - - - - - -
12.08.2020 06:00:00 - - - - - - - - - - -
12.08.2020 05:00:00 - - - - - - - - - - -
12.08.2020 04:00:00 - - - - - - - - - - -
12.08.2020 03:00:00 - - - - - - - - - - -
12.08.2020 02:00:00 - - - - - - - - - - -
12.08.2020 01:00:00 - - - - - - - - - - -
12.08.2020 00:00:00 - - - - - - - - - - -
11.08.2020 23:00:00 - - - - - - - - - - -
11.08.2020 22:00:00 - - - - - - - - - - -
11.08.2020 21:00:00 - - - - - - - - - - -
11.08.2020 20:00:00 - - - - - - - - - - -
11.08.2020 19:00:00 - - - - - - - - - - -
11.08.2020 18:00:00 - - - - - - - - - - -
11.08.2020 17:00:00 - - - - - - - - - - -
11.08.2020 16:00:00 - - - - - - - - - - -
11.08.2020 15:00:00 - - - - - - - - - - -
11.08.2020 14:00:00 - - - - - - - - - - -
11.08.2020 13:00:00 - - - - - - - - - - -
11.08.2020 12:00:00 - - - - - - - - - - -
11.08.2020 11:00:00 - - - - - - - - - - -
11.08.2020 10:00:00 - - - - - - - - - - -
11.08.2020 09:00:00 - - - - - - - - - - -
11.08.2020 08:00:00 - - - - - - - - - - -
11.08.2020 07:00:00 - - - - - - - - - - -
11.08.2020 06:00:00 - - - - - - - - - - -
11.08.2020 05:00:00 - - - - - - - - - - -
11.08.2020 04:00:00 - - - - - - - - - - -
11.08.2020 03:00:00 - - - - - - - - - - -
11.08.2020 02:00:00 - - - - - - - - - - -
11.08.2020 01:00:00 - - - - - - - - - - -
11.08.2020 00:00:00 - - - - - - - - - - -
10.08.2020 23:00:00 - - - - - - - - - - -
10.08.2020 22:00:00 - - - - - - - - - - -
10.08.2020 21:00:00 - - - - - - - - - - -
10.08.2020 20:00:00 - - - - - - - - - - -
10.08.2020 19:00:00 - - - - - - - - - - -
10.08.2020 18:00:00 - - - - - - - - - - -
10.08.2020 17:00:00 - - - - - - - - - - -
10.08.2020 16:00:00 - - - - - - - - - - -
10.08.2020 15:00:00 - - - - - - - - - - -
10.08.2020 14:00:00 - - - - - - - - - - -
10.08.2020 13:00:00 - - - - - - - - - - -
10.08.2020 12:00:00 - - - - - - - - - - -
10.08.2020 11:00:00 - - - - - - - - - - -
10.08.2020 10:00:00 - - - - - - - - - - -
10.08.2020 09:00:00 - - - - - - - - - - -
10.08.2020 08:00:00 - - - - - - - - - - -
10.08.2020 07:00:00 19,7 8,7 1 1 9 5 E 1010,2 20 0 0,0
10.08.2020 06:00:00 21,2 8,5 5 3 10 6 WNW 1010,1 20 0 0,0
10.08.2020 05:00:00 22,6 6,4 3 2 13 7 WNW 1010,0 20 0 0,0
10.08.2020 04:00:00 23,7 6,1 10 5 14 8 W 1010,2 20 0 0,0
10.08.2020 03:00:00 25,3 5,0 10 5 20 11 W 1010,1 20 0 0,0
10.08.2020 02:00:00 26,8 4,5 15 8 24 13 WSW 1010,4 20 0 -
10.08.2020 01:00:00 28,5 4,1 14 8 27 15 WSW 1009,9 20 0 0,0
10.08.2020 00:00:00 29,0 6,4 11 6 19 11 WSW 1010,1 20 0 0,0
09.08.2020 23:00:00 27,9 9,7 5 3 8 4 W 1009,7 20 0 0,0
09.08.2020 22:00:00 31,5 8,5 3 2 17 9 NW 1008,9 20 0 0,0
09.08.2020 21:00:00 34,3 8,8 8 4 31 17 WNW 1008,6 20 0 0,0
09.08.2020 20:00:00 37,3 4,3 13 7 31 17 W 1007,9 20 1 -
09.08.2020 19:00:00 38,6 5,3 10 6 32 18 NW 1008,0 20 51 0,0
09.08.2020 18:00:00 39,8 5,0 14 8 30 16 W 1008,3 20 60 0,0
09.08.2020 17:00:00 40,2 5,3 9 5 30 16 NW 1008,9 20 60 0,0
09.08.2020 16:00:00 39,5 7,0 7 4 32 17 NW 1009,7 20 60 0,0
09.08.2020 15:00:00 38,2 7,0 9 5 25 13 NNW 1010,7 20 60 0,0
09.08.2020 14:00:00 37,2 8,1 9 5 24 13 WNW 1011,7 20 60 -
09.08.2020 13:00:00 36,0 9,6 8 4 21 11 NW 1012,5 20 60 0,0
09.08.2020 12:00:00 34,7 9,2 4 2 14 7 NW 1013,2 20 60 0,0
09.08.2020 11:00:00 31,7 11,0 4 2 12 6 W 1013,8 20 60 0,0
09.08.2020 10:00:00 28,8 11,8 3 2 8 5 NE 1014,4 20 60 0,0
09.08.2020 09:00:00 25,8 12,6 3 1 11 6 E 1014,7 20 60 0,0
09.08.2020 08:00:00 21,2 14,1 7 4 12 7 SE 1014,9 20 6 -
09.08.2020 07:00:00 21,0 13,5 3 2 8 5 S 1014,5 20 0 0,0
09.08.2020 06:00:00 22,6 13,1 5 3 8 5 N 1014,1 20 0 0,0
09.08.2020 05:00:00 24,1 11,4 4 2 10 5 N 1013,8 20 0 0,0
09.08.2020 04:00:00 24,6 11,6 6 3 14 8 WNW 1013,8 20 0 0,0
09.08.2020 03:00:00 26,7 11,2 10 6 15 8 WSW 1013,8 20 0 0,0
09.08.2020 02:00:00 27,8 11,3 9 5 17 9 WSW 1013,6 20 0 -
09.08.2020 01:00:00 27,0 12,2 9 5 15 8 WSW 1013,9 20 0 0,0
09.08.2020 00:00:00 26,9 13,7 5 3 7 4 WSW 1013,8 20 0 0,0
08.08.2020 23:00:00 29,5 12,4 3 2 10 5 WNW 1013,5 20 0 0,0
08.08.2020 22:00:00 31,9 11,7 5 3 13 7 WNW 1012,6 20 0 0,0
08.08.2020 21:00:00 35,4 10,4 4 2 17 9 WNW 1011,9 20 0 0,0
08.08.2020 20:00:00 37,3 9,8 7 4 21 12 WNW 1011,8 20 0 -
08.08.2020 19:00:00 38,3 8,1 7 4 18 10 NNW 1012,0 20 29 0,0
08.08.2020 18:00:00 37,4 7,3 9 5 23 12 E 1012,6 20 22 0,0
08.08.2020 17:00:00 38,7 7,4 12 7 29 15 ENE 1012,9 20 42 0,0
08.08.2020 16:00:00 38,2 8,0 14 7 24 13 NE 1013,6 20 19 0,0
08.08.2020 15:00:00 39,2 7,8 6 4 17 9 WSW 1014,9 20 54 0,0
08.08.2020 14:00:00 37,4 7,3 7 4 20 11 ESE 1015,1 20 52 -
08.08.2020 13:00:00 34,8 11,9 6 3 21 11 N 1015,8 20 34 0,0
08.08.2020 12:00:00 33,0 11,6 8 5 18 10 ENE 1016,9 20 41 0,0
08.08.2020 11:00:00 32,1 13,4 4 2 16 9 SSW 1017,3 20 60 0,0
08.08.2020 10:00:00 28,8 13,1 4 2 11 6 NE 1017,4 20 60 0,0
08.08.2020 09:00:00 25,7 13,3 5 3 8 5 N 1017,6 20 45 0,0
08.08.2020 08:00:00 21,8 13,2 4 2 9 5 SSE 1017,3 20 0 -
08.08.2020 07:00:00 22,0 12,5 5 3 9 5 E 1016,6 20 0 0,0
08.08.2020 06:00:00 23,4 12,4 4 2 12 6 SSE 1016,6 20 0 0,0
08.08.2020 05:00:00 23,7 12,3 3 2 8 4 E 1016,2 20 0 0,0
08.08.2020 04:00:00 25,3 12,2 5 3 18 10 N 1016,1 20 0 0,0
08.08.2020 03:00:00 29,0 11,6 12 6 27 15 WSW 1015,3 20 0 0,0
08.08.2020 02:00:00 28,4 10,2 13 7 21 11 SW 1015,1 20 0 -
08.08.2020 01:00:00 27,0 8,9 7 4 10 6 W 1014,9 20 0 0,0
08.08.2020 00:00:00 27,2 9,9 7 4 8 4 SW 1014,5 20 0 0,0
07.08.2020 23:00:00 30,1 9,0 4 2 12 6 WSW 1013,7 20 0 0,0
07.08.2020 22:00:00 33,2 7,3 7 4 13 7 WSW 1012,5 20 0 0,0
07.08.2020 21:00:00 37,0 5,1 11 6 25 13 WSW 1011,8 20 0 0,0
07.08.2020 20:00:00 38,6 5,3 10 5 29 15 SW 1011,4 20 2 -
07.08.2020 19:00:00 39,8 6,2 9 5 20 11 S 1011,5 20 51 0,0
07.08.2020 18:00:00 39,5 9,0 8 4 21 12 N 1011,6 20 60 0,0
07.08.2020 17:00:00 39,1 8,7 8 5 20 11 NNW 1012,2 20 60 0,0
07.08.2020 16:00:00 38,7 9,3 5 3 22 12 WNW 1012,8 20 60 0,0
07.08.2020 15:00:00 38,0 10,4 8 4 20 11 NNW 1013,4 20 60 0,0
07.08.2020 14:00:00 37,3 9,8 5 3 17 9 W 1014,0 20 60 -
07.08.2020 13:00:00 36,0 10,3 9 5 19 10 SSW 1014,6 20 60 0,0
07.08.2020 12:00:00 34,3 11,4 5 3 18 10 ENE 1015,0 20 60 0,0
07.08.2020 11:00:00 32,0 11,2 6 4 14 7 E 1015,3 20 60 0,0
07.08.2020 10:00:00 30,3 11,3 3 2 10 6 NE 1015,4 20 60 0,0
07.08.2020 09:00:00 24,9 12,4 4 2 8 4 E 1015,5 20 56 0,0
07.08.2020 08:00:00 22,0 12,8 3 2 8 5 ESE 1015,2 20 0 -
07.08.2020 07:00:00 21,6 13,0 4 2 8 5 SE 1014,5 20 0 0,0
07.08.2020 06:00:00 21,8 13,0 1 1 8 4 S 1013,6 20 0 0,0
07.08.2020 05:00:00 22,3 12,2 5 3 9 5 S 1013,2 20 0 0,0
07.08.2020 04:00:00 23,1 10,9 5 3 10 5 N 1012,9 20 0 0,0
07.08.2020 03:00:00 23,7 10,8 2 1 7 4 NNW 1012,2 20 0 0,0
07.08.2020 02:00:00 25,0 10,9 3 2 13 7 SSW 1011,7 20 0 -
07.08.2020 01:00:00 26,4 10,5 6 3 21 11 SW 1011,3 20 0 0,0

tt = temperature
td = dewpoint
ff = wind speed
fx = gusts
dd = wind direction
ppp = reduced air pressure
vv = visibility
sd = sunshine duration
rr = precipitation

Next stations